This demonstration page uses our WeatherBlox Daily Observations layout. Learn more.

Left ArrowRight Arrow

30.21309, -93.2044

Hourly Observations for October 24, 2015

Temp ( °F °C ) Dew Point ( °F °C ) Humidity (%) Winds ( mph kmh ) Pressure ( in mb ) Visibility ( mi km ) Precip ( " mm )
12:15 am 00:15 Mostly Cloudy 74 23.5 71 21.9 91 91 ESE 8 13 29.97 1015 10 16 0.00 0.00
12:35 am 00:35 Cloudy 74 23.5 72 22 91 91 ESE 9 15 29.97 1015 10 16 0.00 0.00
12:55 am 00:55 Cloudy 75 23.7 72 22 90 90 ESE 13 20 29.97 1015 10 16 0.00 0.00
1:15 am 01:15 Cloudy 75 23.7 71 21.9 90 90 ESE 10 17 29.94 1014 10 16 0.00 0.00
1:35 am 01:35 Mostly Cloudy 74 23.5 71 21.8 90 90 ESE 7 11 29.97 1015 10 16 0.00 0.00
1:55 am 01:55 Cloudy 74 23.6 72 22 91 91 ESE 13 20 29.94 1014 10 16 0.00 0.00
2:15 am 02:15 Cloudy 75 23.7 72 22 90 90 ESE 14 22 29.94 1014 10 16 0.00 0.00
2:35 am 02:35 Cloudy 75 23.7 71 21.8 89 89 ESE 10 17 29.94 1014 10 16 0.00 0.00
2:55 am 02:55 Cloudy 74 23.6 71 21.9 90 90 ESE 9 15 29.94 1014 10 16 0.00 0.00
3:15 am 03:15 Cloudy 73 23 72 22 94 94 ESE 9 15 29.94 1014 10 16 0.00 0.00
3:35 am 03:35 Cloudy with Drizzle 73 22.7 72 22 96 96 ESE 13 20 29.94 1014 7 11 0.00 0.00
3:55 am 03:55 Cloudy with Light Rain 72 22.4 71 21.4 94 94 SE 14 22 29.94 1014 4 6 0.00 0.00
4:15 am 04:15 Cloudy with Light Rain 71 21.6 70 21.2 98 98 ESE 10 17 29.94 1014 3 4 0.02 0.51
4:35 am 04:35 Cloudy with Light Rain 71 21.6 70 21.1 97 97 E 12 19 29.94 1014 3 5 0.03 0.76
4:55 am 04:55 Cloudy 70 21.3 69 20.7 96 96 E 6 9 29.94 1014 10 16 0.03 0.76
5:15 am 05:15 Cloudy 70 21.3 69 20.7 96 96 Calm 29.94 1014 10 16 0.00 0.00
6:00 am 06:00 Cloudy 72 22 70 21 94 94 E 3 6 29.94 1014 10 16 0.00 0.00
6:55 am 06:55 Cloudy 72 22 72 22 100 100 E 9 15 29.94 1014 10 16 0.00 0.00
7:50 am 07:50 Cloudy 72 22 72 22 100 100 E 5 7 29.94 1014 10 16 0.00 0.00
8:50 am 08:50 Cloudy 72 22 72 22 100 100 E 13 20 29.97 1015 10 16 0.00 0.00
9:55 am 09:55 Cloudy 73 23 72 22 94 94 ESE 14 22 29.97 1015 10 16 0.00 0.00
10:45 am 10:45 Cloudy 72 22 70 21 94 94 E 10 17 29.97 1015 10 16 0.00 0.00
1:45 pm 13:45 Cloudy with Light Rain 73 23 72 22 94 94 ESE 12 19 29.91 1013 5 8 0.00 0.00
2:55 pm 14:55 Partly Cloudy with Light Rain 73 23 73 23 100 100 E 12 19 29.91 1013 7 11 0.00 0.00
3:55 pm 15:55 Partly Cloudy 73 23 73 23 100 100 ENE 12 19 29.97 1015 10 16 0.00 0.00
4:55 pm 16:55 Mostly Cloudy 72 22 70 21 94 94 ENE 12 19 29.88 1012 10 16 0.00 0.00
5:55 pm 17:55 Mostly Cloudy 73 23 72 22 94 94 ENE 12 19 29.88 1012 10 16 0.00 0.00
7:45 pm 19:45 Mostly Cloudy 72 22 70 21 94 94 ENE 12 19 29.91 1013 10 16 0.00 0.00
8:55 pm 20:55 Mostly Cloudy 72 22 70 21 94 94 ENE 12 19 29.91 1013 10 16 0.00 0.00
9:55 pm 21:55 Cloudy 72 22 72 22 100 100 ENE 12 19 29.94 1014 10 16 0.00 0.00
10:15 pm 22:15 Cloudy with Light Rain 72 22 71 21.5 97 97 ENE 9 15 29.94 1014 10 16 0.00 0.00
10:35 pm 22:35 Cloudy with Light Rain 72 22 71 21.5 97 97 ENE 7 11 29.91 1013 10 16 0.00 0.00
10:55 pm 22:55 Cloudy with Light Rain 72 22 71 21.5 97 97 ENE 10 17 29.91 1013 10 16 0.01 0.25
11:15 pm 23:15 Cloudy with Light Rain 72 22 71 21.5 97 97 ENE 10 17 29.91 1013 10 16 0.00 0.00
11:35 pm 23:35 Cloudy with Rain 72 22 71 21.5 97 97 ENE 9 15 29.91 1013 10 16 0.00 0.00
11:55 pm 23:55 Cloudy with Light Rain 72 22 71 21.5 97 97 E 12 19 29.91 1013 10 16 0.00 0.00

Powered by AerisWeather